Terminal Aerodrome Forecast
Issued by NWS Denver/Boulder, CO

Home | Current Version | Previous Version | Text Only | Print | Product List | Glossary On
Versions: 1 2 3 4 5 6 7 8 9 10 11 12 13 14 15 16 17 18 19 20 21 22 23 24 25 26 27 28 29 30 31 32 33 34 35 36 37 38 39 40 41 42 43 44 45 46 47 48 49 50
000
FTUS45 KBOU 010520
TAFDEN
TAF
KDEN 010520Z 0106/0212 20007KT P6SM SCT120 SCT200
     FM011800 14006KT P6SM SCT060 PROB30 0121/0124 VRB15G25KT -TSRA
      BKN060CB
     FM020200 19007KT P6SM SCT200=

USA.gov is the U.S. government's official web portal to all federal, state and local government web resources and services.